Weather History for Jasper, TX

Change the Weather History Date:

Monday, April 1, 2013

  Actual Average (KLFK) Record (KLFK)
Temperature  
Mean Temperature 68 °F 63 °F  
Max Temperature 81 °F 75 °F 93 °F (1936)
Min Temperature 54 °F 51 °F 33 °F (1931)
Degree Days  
Heating Degree Days 0 4  
Month to date heating degree days 4  
Since 1 July heating degree days 1848  
Cooling Degree Days 2 2  
Month to date cooling degree days 2  
Year to date cooling degree days 62  
Growing Degree Days 18 (Base 50)    
Moisture  
Dew Point 57 °F    
Average Humidity 74    
Maximum Humidity 98    
Minimum Humidity 40    
Precipitation  
Precipitation 0.00 in 0.10 in 4.20 in (1916)
Month to date precipitation 0.10  
Year to date precipitation 11.93  
Snow  
Snow 0.00 in - - ()
Month to date snowfall  
Since 1 July snowfall  
Snow Depth -    
Sea Level Pressure  
Sea Level Pressure 30.04 in    
Wind  
Wind Speed 2 mph (East)    
Max Wind Speed 9 mph    
Max Gust Speed -    
Visibility 8 miles    
Events Fog    
T = Trace of Precipitation, MM = Missing Value Source: NWS Daily Summary

Daily Weather History Graph

Daily Weather History Graph

Search for Another Location

Airport:

Trip Planner

Search our weather history database for the weather conditions in past years. The results will help you decide how hot, cold, wet, or windy it might be!

Date:

Astronomy

Apr. 01, 2013 Rise Set
Actual Time 7:04 AM CDT 7:35 PM CDT
Civil Twilight 6:40 AM CDT 7:59 PM CDT
Nautical Twilight 6:11 AM CDT 8:28 PM CDT
Astronomical Twilight 5:43 AM CDT 8:57 PM CDT
Moon 12:27 AM CDT (4/1) 11:09 AM CDT (4/1)
Length of Visible Light 13h 19m
Length of Day
12h 30m
Waning Gibbous, 67% of the Moon is Illuminated
Apr 1
Waning Gibbous
Apr 2
Last Quarter
Apr 10
New
Apr 18
First Quarter
Apr 25
Full

Hourly Weather History & Observations

Time (CDT) Temp. Heat Index Dew Point Humidity Pressure Visibility Wind Dir Wind Speed Gust Speed Precip Events Conditions
12:15 AM 58.8 °F - 57.4 °F 95% 29.99 in 10.0 mi Calm Calm - N/A   Scattered Clouds
12:35 AM 57.7 °F - 56.5 °F 96% 29.99 in 7.0 mi South 6.9 mph - N/A   Clear
12:55 AM 56.8 °F - 55.8 °F 96% 30.00 in 7.0 mi Calm Calm - N/A   Clear
1:15 AM 56.1 °F - 55.0 °F 96% 30.00 in 5.0 mi SSW 3.5 mph - N/A   Clear
1:35 AM 55.8 °F - 54.9 °F 97% 30.00 in 2.0 mi Calm Calm - N/A   Clear
2:15 AM 56.3 °F - 55.4 °F 97% 30.01 in 2.0 mi Calm Calm - N/A   Scattered Clouds
2:35 AM 56.3 °F - 55.6 °F 97% 30.01 in 1.2 mi Calm Calm - N/A   Overcast
2:55 AM 56.5 °F - 55.8 °F 97% 30.00 in 0.2 mi Calm Calm - N/A Fog Fog
3:15 AM 55.4 °F - 54.7 °F 97% 30.00 in 1.5 mi Calm Calm - N/A   Scattered Clouds
3:35 AM 54.7 °F - 54.0 °F 97% 30.00 in 1.0 mi Calm Calm - N/A   Overcast
3:55 AM 54.9 °F - 54.1 °F 97% 30.01 in 7.0 mi Calm Calm - N/A   Overcast
4:15 AM 54.9 °F - 54.1 °F 97% 30.01 in 7.0 mi Calm Calm - N/A   Overcast
4:35 AM 55.9 °F - 55.2 °F 97% 30.02 in 3.0 mi Calm Calm - N/A   Overcast
4:55 AM 56.5 °F - 55.9 °F 98% 30.02 in 7.0 mi Calm Calm - N/A   Overcast
5:15 AM 57.2 °F - 56.5 °F 97% 30.02 in 7.0 mi NNE 4.6 mph - N/A   Overcast
5:35 AM 58.3 °F - 57.6 °F 97% 30.03 in 10.0 mi North 4.6 mph - N/A   Overcast
5:55 AM 58.6 °F - 57.9 °F 97% 30.04 in 10.0 mi Calm Calm - N/A   Overcast
6:15 AM 58.3 °F - 57.6 °F 97% 30.05 in 7.0 mi Calm Calm - N/A   Overcast
6:35 AM 58.3 °F - 57.6 °F 97% 30.06 in 7.0 mi Calm Calm - N/A   Overcast
6:55 AM 58.3 °F - 57.6 °F 97% 30.07 in 7.0 mi Calm Calm - N/A   Overcast
7:15 AM 58.1 °F - 57.4 °F 97% 30.07 in 5.0 mi Calm Calm - N/A   Overcast
7:35 AM 58.1 °F - 57.4 °F 97% 30.08 in 3.0 mi Calm Calm - N/A   Mostly Cloudy
7:55 AM 58.1 °F - 57.6 °F 98% 30.08 in 7.0 mi Calm Calm - N/A   Mostly Cloudy
8:15 AM 58.8 °F - 58.1 °F 97% 30.09 in 10.0 mi Calm Calm - N/A   Overcast
8:35 AM 59.4 °F - 58.6 °F 97% 30.10 in 10.0 mi Calm Calm - N/A   Mostly Cloudy
8:55 AM 60.4 °F - 59.5 °F 97% 30.10 in 10.0 mi Calm Calm - N/A   Scattered Clouds
9:15 AM 62.4 °F - 60.1 °F 92% 30.11 in 10.0 mi East 3.5 mph - N/A   Clear
9:35 AM 66.2 °F - 61.2 °F 84% 30.11 in 10.0 mi ENE 5.8 mph - N/A   Clear
10:15 AM 70.3 °F - 60.8 °F 72% 30.11 in 10.0 mi ENE 5.8 mph - N/A   Clear
10:35 AM 72.1 °F - 59.9 °F 65% 30.11 in 10.0 mi ENE 8.1 mph - N/A   Clear
10:55 AM 73.8 °F - 57.9 °F 58% 30.11 in 10.0 mi East 9.2 mph - N/A   Clear
11:15 AM 74.5 °F - 56.1 °F 53% 30.11 in 10.0 mi ENE 6.9 mph - N/A   Clear
11:35 AM 74.7 °F - 55.9 °F 52% 30.12 in 10.0 mi East 4.6 mph - N/A   Clear
11:55 AM 75.9 °F - 55.6 °F 49% 30.11 in 10.0 mi ESE 4.6 mph - N/A   Scattered Clouds
12:15 PM 75.6 °F - 55.9 °F 50% 30.11 in 10.0 mi ENE 6.9 mph - N/A   Scattered Clouds
12:35 PM 76.5 °F - 56.3 °F 50% 30.10 in 10.0 mi East 5.8 mph - N/A   Scattered Clouds
1:15 PM 76.8 °F - 55.0 °F 47% 30.09 in 10.0 mi Calm Calm - N/A   Mostly Cloudy
1:35 PM 77.2 °F - 55.8 °F 47% 30.08 in 10.0 mi East 8.1 mph - N/A   Scattered Clouds
1:55 PM 77.7 °F - 55.9 °F 47% 30.07 in 10.0 mi East 4.6 mph - N/A   Scattered Clouds
2:15 PM 79.3 °F - 56.3 °F 45% 30.06 in 10.0 mi Calm Calm - N/A   Scattered Clouds
2:35 PM 79.7 °F - 56.3 °F 44% 30.05 in 10.0 mi NE 3.5 mph - N/A   Scattered Clouds
2:55 PM 79.7 °F - 56.1 °F 44% 30.03 in 10.0 mi Calm Calm - N/A   Scattered Clouds
3:15 PM 79.3 °F - 55.8 °F 44% 30.03 in 10.0 mi North 4.6 mph - N/A   Clear
3:35 PM 80.1 °F 80.2 °F 55.9 °F 43% 30.03 in 10.0 mi NE 4.6 mph - N/A   Clear
3:55 PM 81.0 °F 80.8 °F 55.8 °F 42% 30.02 in 10.0 mi SSE 3.5 mph - N/A   Scattered Clouds
4:15 PM 81.1 °F 80.9 °F 55.4 °F 41% 30.02 in 10.0 mi SE 3.5 mph - N/A   Scattered Clouds
4:35 PM 81.7 °F 81.3 °F 55.6 °F 41% 30.01 in 10.0 mi ENE 5.8 mph - N/A   Scattered Clouds
4:55 PM 80.8 °F 80.7 °F 55.4 °F 42% 30.00 in 10.0 mi Calm Calm - N/A   Clear
5:15 PM 81.5 °F 81.0 °F 55.2 °F 40% 30.00 in 10.0 mi Calm Calm - N/A   Clear
5:35 PM 81.1 °F 80.9 °F 55.0 °F 41% 29.99 in 10.0 mi Calm Calm - N/A   Clear
5:55 PM 81.5 °F 81.3 °F 56.5 °F 42% 30.00 in 10.0 mi SSE 4.6 mph - N/A   Mostly Cloudy
6:15 PM 81.0 °F 80.9 °F 56.5 °F 43% 30.00 in 10.0 mi Calm Calm - N/A   Scattered Clouds
6:35 PM 80.2 °F 80.5 °F 57.0 °F 45% 30.00 in 10.0 mi Calm Calm - N/A   Clear
6:55 PM 78.3 °F - 58.8 °F 51% 30.00 in 10.0 mi Calm Calm - N/A   Scattered Clouds
7:15 PM 76.8 °F - 59.5 °F 55% 30.00 in 10.0 mi East 3.5 mph - N/A   Mostly Cloudy
7:35 PM 75.7 °F - 59.4 °F 57% 30.00 in 10.0 mi Calm Calm - N/A   Scattered Clouds
7:55 PM 72.0 °F - 61.3 °F 69% 30.00 in 10.0 mi Calm Calm - N/A   Clear
8:15 PM 69.8 °F - 61.7 °F 75% 30.00 in 10.0 mi Calm Calm - N/A   Mostly Cloudy
8:35 PM 68.2 °F - 61.3 °F 79% 30.01 in 10.0 mi Calm Calm - N/A   Scattered Clouds
8:55 PM 66.7 °F - 61.2 °F 82% 30.01 in 10.0 mi Calm Calm - N/A   Clear
9:15 PM 66.0 °F - 61.0 °F 84% 30.01 in 10.0 mi Calm Calm - N/A   Clear
9:35 PM 64.8 °F - 60.6 °F 86% 30.03 in 10.0 mi Calm Calm - N/A   Clear
9:55 PM 63.7 °F - 59.9 °F 87% 30.04 in 10.0 mi Calm Calm - N/A   Clear
10:15 PM 63.9 °F - 59.7 °F 86% 30.05 in 10.0 mi Calm Calm - N/A   Mostly Cloudy
10:35 PM 64.6 °F - 59.9 °F 85% 30.05 in 10.0 mi Calm Calm - N/A   Mostly Cloudy
10:55 PM 64.4 °F - 59.5 °F 84% 30.06 in 10.0 mi Calm Calm - N/A   Scattered Clouds
11:15 PM 63.1 °F - 59.4 °F 87% 30.06 in 10.0 mi Calm Calm - N/A   Scattered Clouds
11:35 PM 62.2 °F - 59.0 °F 89% 30.06 in 10.0 mi Calm Calm - N/A   Scattered Clouds
11:55 PM 61.7 °F - 58.5 °F 89% 30.05 in 10.0 mi East 6.9 mph - N/A   Clear